星链-5284 (STARLINK-5284 )

导读

STARLINK-5284是美国太空探索技术公司(SpaceX)星链计划中的一颗卫星,于2023年1月19日发射升空。作为星链卫星互联网星座的一员,它主要用于为全球提供高速互联网接入服务,尤其服务偏远地区并支持各类移动互联网接入场景,进一步扩充了星链星座的在轨运行规模。

Basic Information
目录编号:
55297
目录名称:
STARLINK-5284
国际标识:
2023-010AE
轨道中心:
EARTH
卫星名称:
星链-5284
卫星全名:
星链-5284 (STARLINK-5284 )
卫星状态:
在轨 (已飞行1243 天)
发射日期:
2023-01-19 UTC
国别 :
美国 (US)
星等 :
--
Orbit Information
数据来源 国际轨道数据 AOE轨道数据
星历时间 2026-06-14T23:27:40+0800
16小时前
查看轨道信息
2026-06-11T11:00:00+0800
4天前
查看轨道信息
半长轴 6950.196km 6950.166km
偏心率 0.0003359 0.0003606
轨道倾角 69.999° 69.998°
近地点辐角 267.811° 266.949°
升交点赤经 139.932° 148.802°
平近点角 92.267° 195.952°
近地点 569.724km 569.522km
远地点 574.394km 574.536km
周期 96.107分钟 96.106分钟
每日圈数 14.98329 14.983389
Detailed Information
固有亮度:
5
最大亮度:
2.5
卫星平台:
Starlink v1.5
覆盖范围:
全球
运营商:
太空探索技术公司
运营商所在国:
美国
制造商(研发单位):
太空探索技术公司
制造商所在国:
美国
使用方式:
暂无
Satellite Introduction
星链(Starlink)计划是由太空探索技术公司(SpaceX)提出的一个巨型低轨卫星互联网星座项目,计划在2019年至2024年间在太空搭建由约1.2万颗卫星组成的“星链”网络,其中1584颗将部署在地球上空550千米处的近地轨道,并从2020年开始工作。该卫星仍在工作。
2D Orbit Map
3D Orbit Map
Orbit Altitude Analysis Chart
Orbit Inclination Analysis Chart
Orbit Comprehensive Analysis Chart
View Comprehensive Chart